[TLELIST] Archives

 

[list_settings.list_name] Current TLEs

October 23rd 2008 PST

HST 1 20580U 90037B 08294.92981888 +.00000389 +00000-0 +17268-4 0 02676 2 20580 028.4700 223.0814 0003671 274.8063 085.2106 15.00419154813885 ISS (ZARYA) 1 25544U 98067A 08294.84385456 +.00008558 +00000-0 +67552-4 0 04817 2 25544 051.6422 092.1567 0003332 245.2030 250.6762 15.72364267568302 CXO 1 25867U 99040B 08294.50000000 +.00000376 +00000-0 +10000-3 0 02553 2 25867 064.3719 076.9580 7057959 277.6109 358.1173 00.37799452004108 ____________________________________________________________________ These 2-Line ...Continue Reading

[list_settings.list_name] Current TLEs

October 22nd 2008 PST

HST 1 20580U 90037B 08295.19588771 .00000400 00000-0 18149-4 0 2459 2 20580 028.4696 221.3439 0003628 278.2010 081.8168 15.00419328813923 ISS (ZARYA) 1 25544U 98067A 08293.82765131 +.00009329 +00000-0 +73265-4 0 04754 2 25544 051.6420 097.3623 0003277 240.8423 258.9744 15.72348513568144 CXO 1 25867U 99040B 08294.50000000 +.00000376 +00000-0 +10000-3 0 02553 2 25867 064.3719 076.9580 7057959 277.6109 358.1173 00.37799452004108 ____________________________________________________________________ These 2-Line ...Continue Reading

[list_settings.list_name] Current TLEs

October 21st 2008 PST

HST 1 20580U 90037B 08293.26688690 .00000392 00000-0 17506-4 0 2441 2 20580 028.4703 233.9254 0003665 257.0231 102.9948 15.00418464813636 ISS (ZARYA) 1 25544U 98067A 08293.49465252 .00009634 00000-0 75528-4 0 4739 2 25544 051.6426 099.0680 0003330 240.3349 173.2976 15.72343569568090 CXO 1 25867U 99040B 08291.87500000 +.00000425 +00000-0 +10000-3 0 02549 2 25867 064.3609 077.0264 7052987 277.6814 000.6798 00.37796638004099 ____________________________________________________________________ These 2-Line ...Continue Reading

[list_settings.list_name] Current TLEs

October 20th 2008 PST

HST 1 20580U 90037B 08291.93654150 +.00000409 +00000-0 +18813-4 0 02639 2 20580 028.4703 242.6041 0003752 242.3435 117.6773 15.00418004813434 ISS (ZARYA) 1 25544U 98067A 08293.05818407 .00009724 00000-0 76217-4 0 4696 2 25544 051.6423 101.3035 0003427 238.0030 223.3736 15.72335139568024 CXO 1 25867U 99040B 08291.87500000 +.00000425 +00000-0 +10000-3 0 02549 2 25867 064.3609 077.0264 7052987 277.6814 000.6798 00.37796638004099 ____________________________________________________________________ These 2-Line ...Continue Reading

[list_settings.list_name] Current TLEs

October 19th 2008 PST

HST 1 20580U 90037B 08292.20261054 .00000388 00000-0 17189-4 0 2436 2 20580 028.4703 240.8660 0003677 245.6427 114.3777 15.00417942813476 ISS (ZARYA) 1 25544U 98067A 08291.52340378 .00013791 00000-0 10622-3 0 4598 2 25544 051.6416 109.1653 0003546 229.8945 178.2709 15.72317173567781 CXO 1 25867U 99040B 08291.87500000 +.00000425 +00000-0 +10000-3 0 02549 2 25867 064.3609 077.0264 7052987 277.6814 000.6798 00.37796638004099 ____________________________________________________________________ These 2-Line ...Continue Reading

[list_settings.list_name] Current TLEs

October 18th 2008 PST

HST 1 20580U 90037B 08289.94102288 +.00000409 +00000-0 +18786-4 0 02478 2 20580 028.4703 255.6187 0003864 221.5556 138.4741 15.00417068813138 ISS (ZARYA) 1 25544U 98067A 08290.50497133 .00014617 00000-0 11241-3 0 4526 2 25544 051.6419 114.3833 0003459 227.5088 172.1737 15.72293287567624 CXO 1 25867U 99040B 08289.20833333 +.00000533 +00000-0 +10000-3 0 02530 2 25867 064.3418 077.1303 7051706 277.7032 357.6400 00.37806863004089 ____________________________________________________________________ These 2-Line ...Continue Reading

[list_settings.list_name] Current TLEs

October 17th 2008 PST

HST 1 20580U 90037B 08290.34012665 .00000399 00000-0 18067-4 0 2428 2 20580 028.4703 253.0151 0003821 226.0705 133.9567 15.00417184813191 ISS (ZARYA) 1 25544U 98067A 08289.55379628 .00014092 00000-0 10869-3 0 4451 2 25544 051.6421 119.2525 0003675 219.8593 192.3484 15.72261275567472 CXO 1 25867U 99040B 08289.20833333 +.00000533 +00000-0 +10000-3 0 02530 2 25867 064.3418 077.1303 7051706 277.7032 357.6400 00.37806863004089 ____________________________________________________________________ These 2-Line ...Continue Reading

[list_settings.list_name] Current TLEs

October 16th 2008 PST

HST 1 20580U 90037B 08289.20933293 .00000354 00000-0 14523-4 0 2413 2 20580 028.4702 260.3904 0003886 214.2647 145.7696 15.00416423813023 ISS (ZARYA) 1 25544U 98067A 08288.53464319 .00012361 00000-0 96067-4 0 4395 2 25544 051.6430 124.4728 0003810 212.5151 187.2917 15.72223724567310 CXO 1 25867U 99040B 08289.20833333 +.00000533 +00000-0 +10000-3 0 02530 2 25867 064.3418 077.1303 7051706 277.7032 357.6400 00.37806863004089 ____________________________________________________________________ These 2-Line ...Continue Reading

[list_settings.list_name] Current TLEs

October 15th 2008 PST

HST 1 20580U 90037B 08287.34684823 .00000342 00000-0 13575-4 0 2400 2 20580 028.4703 272.5370 0003887 196.0141 164.0326 15.00415582812740 ISS (ZARYA) 1 25544U 98067A 08287.38421296 .00010144 00000-0 79805-4 0 4336 2 25544 051.6425 130.3637 0003502 210.0351 153.9842 15.72185237567135 CXO 1 25867U 99040B 08286.58333333 +.00000548 +00000-0 +10000-3 0 02528 2 25867 064.3220 077.2308 7048682 277.6918 000.3617 00.37809055004074 ____________________________________________________________________ These 2-Line ...Continue Reading

[list_settings.list_name] Current TLEs

October 14th 2008 PST

HST 1 20580U 90037B 08285.41784545 +.00000318 +00000-0 +11716-4 0 02495 2 20580 028.4704 285.1185 0003900 176.8859 183.1756 15.00414842812458 ISS (ZARYA) 1 25544U 98067A 08287.14681832 .00010077 00000-0 79324-4 0 4313 2 25544 051.6418 131.5796 0003485 209.1417 250.3515 15.72179722567094 CXO 1 25867U 99040B 08286.58333333 +.00000548 +00000-0 +10000-3 0 02528 2 25867 064.3220 077.2308 7048682 277.6918 000.3617 00.37809055004074 ____________________________________________________________________ These 2-Line ...Continue Reading
  • This mailing list is a public mailing list - anyone may join or leave, at any time.
  • This mailing list is announce-only.

International Space Station (ISS) / Hubble Space Telescope (HST) / Chandra X-Ray Observatory Orbital Data via EMAIL

Privacy Policy:

Private list